Location: Gad�tanya
(48.0500°N, 20.8500°E)
Time: 23:13:54
(UTC+00:00)

Cosmos 1943 - Pass Details

Date: 05 July 2020
Orbit: 835 x 848 km, 71.0° (Epoch: 05 August)

Event Time Altitude Azimuth Distance (km) Brightness Sun altitude
Exits shadow 22:56:08 28° 148° (SSE) 1,526 4.1 -19.2°
Maximum altitude 22:58:10 38° 107° (ESE) 1,279 4.0 -19.2°
Drops below altitude 10° 23:03:20 10° 41° (NE) 2,472 6.4 -19.1°
Sets 23:05:56 0° 34° (NE) 3,409 7.4 -19.1°
